Date String (YYYY-MM-DD hh:mm:ss) UTC,Instrument flags,Ambient pressure (hPa),Sample flow (lpm),Bypass flow (lpm),Sample temperature (°C),Ambient temperature (°C),ASC tube jacket temperature (°C),LED temperature (°C),Box temperature (°C),Sample RH (%),Span deviation,Mass concentration (μg/m³),Mass concentration (μg/m³),Mass concentration (μg/m³)
DateTimeUTC,F1_M11,P_M11,Q1_M11,Q2_M11,T1_M11,T2_M11,T3_M11,T4_M11,T5_M11,U1_M11,ZSPAN_M11,X0_M11,X2_M11,X1_M11
2022-11-20 03:00:00,,0830.6,5.00,0.00,23.0,21.2,00.0,32.1,24.8,09.7,0000.0,0010.25,0006.00,0005.52
2022-11-20 03:01:00,,0830.6,5.02,0.00,23.0,21.2,00.0,32.0,24.8,09.7,0000.0,0010.46,0005.94,0005.49
2022-11-20 03:02:00,,0830.6,4.98,0.00,23.0,21.2,00.0,32.0,24.7,09.7,0000.0,0010.59,0005.89,0005.44
2022-11-20 03:03:00,,0830.6,5.01,0.00,22.9,21.2,00.0,32.0,24.7,09.7,0000.0,0010.41,0005.81,0005.40
2022-11-20 03:04:00,,0830.6,5.00,0.00,22.9,21.2,00.0,32.0,24.7,09.6,0000.0,0010.46,0005.77,0005.35
2022-11-20 03:05:00,,0830.6,5.00,0.00,22.9,21.2,00.0,32.0,24.7,09.6,0000.0,0010.87,0005.73,0005.29
2022-11-20 03:06:00,,0830.6,4.99,0.00,22.9,21.2,00.0,31.9,24.6,09.6,0000.0,0010.91,0005.70,0005.24
2022-11-20 03:07:00,,0830.5,5.00,0.00,22.9,21.2,00.0,31.9,24.7,09.6,0000.0,0010.75,0005.63,0005.19
2022-11-20 03:08:00,,0830.5,5.01,0.00,22.9,21.2,00.0,31.9,24.7,09.6,0000.0,0010.56,0005.56,0005.11
2022-11-20 03:09:00,,0830.5,5.00,0.00,22.8,21.2,00.0,31.9,24.7,09.6,0000.0,0010.38,0005.48,0005.06
2022-11-20 03:10:00,,0830.6,4.99,0.00,22.8,21.2,00.0,31.9,24.6,09.6,0000.0,0010.32,0005.43,0005.02
2022-11-20 03:11:00,,0830.6,5.00,0.00,22.8,21.2,00.0,31.9,24.4,09.6,0000.0,0010.04,0005.41,0004.99
2022-11-20 03:12:00,,0830.6,5.01,0.00,22.8,21.2,00.0,31.9,24.5,09.6,0000.0,0009.87,0005.39,0004.95
2022-11-20 03:13:00,,0830.6,5.01,0.00,22.8,21.2,00.0,31.9,24.6,09.6,0000.0,0009.45,0005.37,0004.93
2022-11-20 03:14:00,,0830.6,4.98,0.00,22.8,21.2,00.0,31.8,24.5,09.6,0000.0,0009.60,0005.38,0004.93
2022-11-20 03:15:00,,0830.6,5.01,0.00,22.8,21.2,00.0,31.8,24.4,09.6,0000.0,0009.54,0005.37,0004.90
2022-11-20 03:16:00,,0830.6,5.00,0.00,22.7,21.2,00.0,31.8,24.4,09.6,0000.0,0009.14,0005.37,0004.90
2022-11-20 03:17:00,,0830.6,4.98,0.00,22.7,21.2,00.0,31.8,24.4,09.6,0000.0,0009.08,0005.30,0004.88
2022-11-20 03:18:00,,0830.6,5.00,0.00,22.7,21.1,00.0,31.8,24.4,09.7,0000.0,0009.57,0005.28,0004.87
2022-11-20 03:19:00,,0830.6,5.00,0.00,22.7,21.1,00.0,31.8,24.3,09.7,0000.0,0009.67,0005.29,0004.86
2022-11-20 03:20:00,,0830.6,5.00,0.00,22.7,21.1,00.0,31.7,24.2,09.7,0000.0,0009.75,0005.31,0004.87
2022-11-20 03:21:00,,0830.6,5.01,0.00,22.7,21.0,00.0,31.7,24.2,09.8,0000.0,0009.78,0005.30,0004.86
2022-11-20 03:22:00,,0830.6,5.00,0.00,22.6,21.0,00.0,31.7,24.3,09.8,0000.0,0009.72,0005.29,0004.85
2022-11-20 03:23:00,,0830.6,5.00,0.00,22.6,21.0,00.0,31.7,24.2,09.8,0000.0,0010.10,0005.28,0004.85
2022-11-20 03:24:00,,0830.6,5.00,0.00,22.6,20.9,00.0,31.7,24.2,09.9,0000.0,0011.24,0005.28,0004.84
2022-11-20 03:25:00,,0830.6,4.99,0.00,22.6,20.9,00.0,31.7,24.2,09.9,0000.0,0011.75,0005.26,0004.81
2022-11-20 03:26:00,,0830.6,5.01,0.00,22.6,20.8,00.0,31.7,24.2,10.0,0000.0,0011.75,0005.24,0004.81
2022-11-20 03:27:00,,0830.6,5.01,0.00,22.5,20.8,00.0,31.6,24.2,10.0,0000.0,0011.85,0005.22,0004.79
2022-11-20 03:28:00,,0830.6,5.00,0.00,22.5,20.8,00.0,31.6,24.1,10.0,0000.0,0011.95,0005.21,0004.76
2022-11-20 03:29:00,,0830.6,4.99,0.00,22.5,20.8,00.0,31.6,24.1,10.0,0000.0,0011.39,0005.18,0004.74
2022-11-20 03:30:00,,0830.6,5.00,0.00,22.5,20.7,00.0,31.6,24.1,10.0,0000.0,0011.34,0005.17,0004.72
2022-11-20 03:31:00,,0830.6,5.01,0.00,22.4,20.7,00.0,31.6,24.1,10.0,0000.0,0011.30,0005.15,0004.68
2022-11-20 03:32:00,,0830.6,5.00,0.00,22.4,20.7,00.0,31.5,24.1,10.0,0000.0,0011.45,0005.17,0004.65
2022-11-20 03:33:00,,0830.6,4.99,0.00,22.4,20.7,00.0,31.5,24.1,09.9,0000.0,0011.53,0005.16,0004.61
2022-11-20 03:34:00,,0830.6,5.00,0.00,22.4,20.7,00.0,31.5,24.1,09.9,0000.0,0011.25,0005.14,0004.58
2022-11-20 03:35:00,,0830.6,4.99,0.00,22.4,20.6,00.0,31.5,24.0,09.9,0000.0,0010.10,0005.08,0004.54
2022-11-20 03:36:00,,0830.5,5.00,0.00,22.3,20.6,00.0,31.5,23.9,09.9,0000.0,0009.41,0005.04,0004.51
2022-11-20 03:37:00,,0830.6,5.00,0.00,22.3,20.6,00.0,31.4,23.9,09.9,0000.0,0009.32,0005.00,0004.48
2022-11-20 03:38:00,,0830.6,5.00,0.00,22.3,20.6,00.0,31.4,23.9,09.9,0000.0,0009.06,0004.96,0004.45
2022-11-20 03:39:00,,0830.5,4.99,0.00,22.3,20.5,00.0,31.4,24.0,09.9,0000.0,0008.85,0004.95,0004.45
2022-11-20 03:40:00,,0830.5,5.00,0.00,22.2,20.5,00.0,31.4,23.9,09.9,0000.0,0008.76,0004.92,0004.43
2022-11-20 03:41:00,,0830.5,5.01,0.00,22.2,20.5,00.0,31.4,23.8,09.9,0000.0,0008.67,0004.87,0004.41
2022-11-20 03:42:00,,0830.5,5.00,0.00,22.2,20.5,00.0,31.3,23.8,09.9,0000.0,0008.60,0004.84,0004.39
2022-11-20 03:43:00,,0830.5,5.00,0.00,22.2,20.5,00.0,31.3,23.9,09.9,0000.0,0008.52,0004.75,0004.38
2022-11-20 03:44:00,,0830.5,5.00,0.00,22.2,20.5,00.0,31.3,23.8,09.9,0000.0,0008.57,0004.73,0004.37
2022-11-20 03:45:00,,0830.5,4.99,0.00,22.2,20.4,00.0,31.3,23.9,09.9,0000.0,0008.41,0004.72,0004.36
2022-11-20 03:46:00,,0830.6,5.00,0.00,22.1,20.4,00.0,31.3,23.9,09.9,0000.0,0008.45,0004.71,0004.35
2022-11-20 03:47:00,,0830.5,4.99,0.00,22.1,20.4,00.0,31.2,23.7,09.9,0000.0,0008.39,0004.69,0004.34
2022-11-20 03:48:00,,0830.6,5.01,0.00,22.1,20.4,00.0,31.2,23.7,09.9,0000.0,0008.47,0004.72,0004.33
2022-11-20 03:49:00,,0830.5,5.01,0.00,22.1,20.4,00.0,31.2,23.6,09.8,0000.0,0008.54,0004.73,0004.32
2022-11-20 03:50:00,,0830.6,5.00,0.00,22.0,20.4,00.0,31.2,23.7,09.9,0000.0,0008.46,0004.70,0004.29
2022-11-20 03:51:00,,0830.5,4.99,0.00,22.0,20.4,00.0,31.2,23.7,09.9,0000.0,0008.48,0004.71,0004.30
2022-11-20 03:52:00,,0830.6,4.99,0.00,22.0,20.4,00.0,31.1,23.7,09.8,0000.0,0008.52,0004.72,0004.30
2022-11-20 03:53:00,,0830.5,5.00,0.00,22.0,20.3,00.0,31.1,23.6,09.9,0000.0,0009.05,0004.75,0004.31
2022-11-20 03:54:00,,0830.5,5.00,0.00,22.0,20.3,00.0,31.1,23.6,09.9,0000.0,0009.39,0004.75,0004.31
2022-11-20 03:55:00,,0830.5,5.02,0.00,22.0,20.3,00.0,31.1,23.6,09.9,0000.0,0009.22,0004.74,0004.32
2022-11-20 03:56:00,,0830.5,5.00,0.00,22.0,20.3,00.0,31.1,23.6,09.9,0000.0,0009.25,0004.74,0004.31
2022-11-20 03:57:00,,0830.6,5.00,0.00,21.9,20.3,00.0,31.0,23.5,09.8,0000.0,0009.20,0004.74,0004.31
2022-11-20 03:58:00,,0830.5,5.00,0.00,21.9,20.3,00.0,31.0,23.5,09.8,0000.0,0009.46,0004.74,0004.32
2022-11-20 03:59:00,,0830.6,4.99,0.00,21.9,20.2,00.0,31.0,23.6,09.8,0000.0,0009.45,0004.73,0004.31
